STARLINK-32784, 62607

Orbit data source: Space-Track

STARLINK-32784, 62607 is a payload satellite owned by SpaceX/Seattle (US) in LEO that was launched on Mon, 13 Jan 2025 UTC via an FALCON 9 launch vehicle from the Air Force Eastern Test Range (AFETR). Payload-class satellites include a variety of spacecraft equipped with specific instruments for various scientific and technological missions. These include communications satellites like Starlink; space stations such as the ISS; scientific satellites like the Hubble; Earth observation satellites from companies like Planet Labs, Umbra, and HawkEye 360; GPS; miniature CubeSats for education and research; and military/defense satellites.

Loading next visibility...
Identifier
62607, 2025-008W
Orbit
LEO
Country
Flag of USUS
Related business
Manufacturer
SpaceX/Seattle
Mission
Operational Commercial Communications
Bus & Motor
STARLINK V2M, Unknown motor
Mass
730 kg wet, ~700 kg dry
Launch date (UTC)
2025-01-13 (8 months ago)
Launch vehicle
FALCON 9
Launch site
Air Force Eastern Test Range (AFETR)
Object type
Payload
Rocket body
Debris
Shape & HBR
Box + 2 Pan, 14.5 m
Radar Cross Section
33.884 m², Large (>1 m²)

Expand to show TLE details & history
Last TLE update: 13 hours ago

TLE from 13 hours ago
0 STARLINK-32784
1 62607U 25008W   25258.49949228  .00032373  00000-0  11802-2 0  9997
2 62607  42.9929 187.0968 0000502 344.7408  15.3428 15.27596182 38835
Epoch: 2025-09-15T11:59Z
TLE epoch observation values (Epoch: 2025-09-15T11:59:16.133Z)
Latitude
-0.00002°
Longitude
12.57629°
Altitude
482.443 km
Speed
7.626 km/s
True Right ascension
12h 28m 23s
True Declination
0° 00' 00"
Sunlit
Object was in daylight at epoch
Visualization orbit readout
Latitude
Unknown
Longitude
Unknown
Altitude
Unknown
Speed
Unknown
Apparent Right ascension
Unknown
Apparent Declination
Unknown
Sunlit
N/A
Visualization observer readout
Local Sidereal Time
17:23:43
Azimuth
Unknown
Elevation
Unknown
Doppler factor
Unknown
Orbital elements
Apogee altitude
485.292 km
Perigee altitude
484.602 km
Semi-major axis
6,863.084 km
Eccentricity
0.00005
Inclination
42.9929°
RAAN
187.0968°
Arg. of periapsis
344.7408°
True anomaly
15.34432°
Mean anomaly
15.3428°
Eccentric anomaly
15.34356°
Mean motion
3.81737 °/min
Orbital period
94.31 mins
BSTAR
0.0011802
Loading maneuver chart data...
Computing Atmospheric mass density...
Loading historical data...
Loading historical data...
Loading historical data...
Loading historical data...
Loading historical data...
Loading historical data...
Loading historical data...

Documentation

Showing up to 5 results
|